SCP
0 0 0 0 0 0 -0 0 0 0 0 0 0 0 0 0 0 0 0 0 0 0 0 0 0 0 0 0 0 0 -0 -0 -0 -0 -0 -0 -0 -0 -0 -0 -0 -0 -0 -0 -0 -0 -0 -0 -0
0 0 0 0 0 -0 -0 0 0 0 0 0 0 0 0 0 0 0 0 -0 0 0 0 0 0 0 0 -0 -0 -0 -0 -0 -0 -0 -0 -0 -0 -0 -0 -0 -0 -0 -0 -0 -0 -0 -0 -0 -0
0 0 0 0 0 -0 -0 0 0 0 0 0 -0 0 0 0 -0 0 -0 0 0 0 0 0 0 -0 -0 -0 -0 -0 -0 -0 -0 -0 -0 -0 -0 -0 -0 -0 -0 -0 -0 -0 -0 -0 -0 -0 -0
0 0 0 0 0 0 0 -0 0 0 0 0 0 -0 0 0 0 0 0 -0 0 0 0 0 0 -0 -0 -0 -0 -0 -0 -0 -0 -0 -0 -0 -0 -0 -0 -0 -0 -0 -0 -0 -0 -0 -0 -0 -0
0 0 0 0 0 0 0 -0 0 0 0 0 0 0 -0 0 -0 -0 -0 -0 -0 0 0 0 -0 -0 -0 -0 -0 -0 -0 -0 -0 -0 -0 -0 -0 -0 -0 -0 -0 -0 -0 -0 -0 -0 -0 -0 -0
0 0 0 0 0 0 -0 -0 -0 -0 0 0 -0 -0 -0 0 -0 -0 -0 -0 0 -0 0 0 0 -0 -0 -0 -0 -0 -0 -0 -0 -0 -0 -0 -0 -0 -0 -0 -0 -0 -0 -0 -0 -0 -0 -0 -0
0 0 0 0 0 0 0 -0 0 -0 0 0 -0 -0 -0 -0 -0 -0 -0 0 0 0 0 0 0 -0 -0 -0 -0 -0 -0 -0 -0 -0 -0 -0 -0 -0 -0 -0 -0 -0 -0 -0 -0 -0 -0 -0 -0
0 0 0 0 0 0 0 0 0 -0 0 0 -0 -0 0 -0 -0 -0 -0 -0 0 0 0 0 0 0 0 0 -0 -0 -0 -0 -0 -0 -0 -0 -0 -0 -0 -0 -0 -0 -0 -0 -0 -0 -0 -0 -0
0 0 0 0 0 0 0 0 0 0 -0 0 0 -0 -0 -0 -0 -0 -0 -0 0 0 0 0 -0 0 0 0 0 0 -0 -0 -0 -0 -0 0 0 0 -0 -0 -0 -0 -0 -0 -0 -0 -0 -0 -0
0 0 0 0 0 0 0 0 0 0 0 0 0 0 0 -0 -0 -0 -0 -0 -0 -0 -0 0 0 0 0 0 0 0 0 0 0 0 0 0 0 0 0 0 0 0 -0 -0 -0 -0 -0 0 0
0 0 0 0 0 0 0 0 0 0 0 0 0 0 0 0 -0 -0 -0 -0 -0 -0 0 0 -0 0 0 0 0 0 0 0 0 0 0 0 0 0 0 0 0 0 0 0 0 0 0 0 0
0 0 0 0 0 0 0 0 0 0 0 0 0 0 0 -0 -0 -0 -0 -0 -0 -0 -0 -0 -0 -0 0 0 0 0 0 0 0 0 0 0 0 0 0 0 0 0 0 0 0 0 0 0 0
0 0 0 0 0 0 0 0 0 0 0 0 0 0 0 -0 -0 -0 -0 -0 -0 -0 -0 -0 -0 -0 0 0 0 0 0 0 0 0 0 0 0 0 0 0 0 0 0 0 0 0 0 0 0
0 0 0 0 0 0 0 0 0 0 0 0 0 0 0 0 -0 0 0 -0 -0 -0 -0 -0 -0 -0 0 0 0 0 0 0 0 0 0 0 0 0 0 0 0 0 0 0 0 0 0 0 0
0 0 0 0 0 0 0 0 0 0 0 0 0 0 0 0 0 0 -0 -0 -0 -0 -0 -0 -0 -0 -0 0 0 0 0 0 0 0 0 0 0 0 0 0 0 0 0 0 0 0 0 0 0
0 0 0 0 0 0 0 0 0 0 0 0 0 0 0 0 0 0 0 0 0 0 -0 -0 0 -0 -0 0 0 0 0 0 0 0 0 0 0 0 0 0 0 0 0 0 0 0 0 0 0
0 0 0 0 0 0 0 0 0 0 0 0 0 0 0 0 0 0 0 0 0 -0 0 0 0 0 -0 0 0 0 0 0 0 0 0 0 0 0 0 0 0 0 0 0 0 0 0 0 0
0 0 0 0 0 0 0 0 0 0 0 0 0 0 0 0 0 0 0 0 0 0 0 0 0 0 0 0 0 0 0 0 0 0 0 0 0 0 0 0 0 0 0 0 0 0 0 0 0
0 0 0 0 0 0 0 0 0 0 0 0 0 0 0 0 0 0 0 0 0 0 0 0 0 0 0 0 0 0 0 0 0 0 0 0 0 0 0 0 0 0 0 0 0 0 0 0 0
0 0 0 0 0 0 0 0 0 0 0 0 0 0 0 0 0 0 0 0 0 0 0 0 0 0 0 0 0 0 0 0 0 0 0 0 0 0 0 0 0 0 0 0 0 0 0 0 0
0 0 0 0 0 0 0 -0 0 0 0 0 0 0 0 0 0 0 0 0 0 0 0 0 0 0 0 0 0 0 0 0 0 0 0 0 0 0 0 0 0 0 0 0 0 0 0 0 0
0 0 0 0 0 0 0 -0 0 0 0 0 0 0 0 0 0 0 0 0 0 0 0 0 0 0 0 0 0 0 0 0 0 0 0 0 0 0 0 0 0 0 0 0 0 0 0 0 0
0 0 0 0 0 0 0 0 -0 0 0 0 0 0 0 0 0 0 0 0 0 0 0 0 0 0 0 0 0 0 0 0 0 0 0 0 0 0 0 0 0 0 0 0 0 0 0 0 0
0 0 0 0 0 0 0 0 0 0 -0 0 0 0 0 0 0 0 0 0 0 0 0 0 0 0 0 0 0 0 0 0 0 0 0 0 0 0 0 0 0 0 0 0 0 0 0 0 0
0 0 0 0 0 0 0 0 0 0 0 0 0 0 0 0 0 0 0 0 0 0 0 0 0 0 0 0 0 0 0 0 0 0 0 0 0 0 0 0 0 0 0 0 0 0 0 0 0
0 0 0 0 0 0 0 0 0 0 0 0 0 0 0 0 0 0 0 0 0 0 0 0 0 0 0 0 0 0 0 0 0 0 0 0 0 0 0 0 0 0 0 0 0 0 0 0 0
0 0 0 0 0 0 0 0 0 0 0 0 0 0 0 0 0 0 0 0 0 0 0 0 0 0 0 0 0 0 0 0 0 0 0 0 0 0 0 0 0 0 0 0 0 0 0 0 0
0 0 0 0 0 0 0 0 0 0 0 0 0 0 0 0 0 0 0 0 0 0 0 0 0 0 0 0 0 0 0 0 0 0 0 0 0 0 0 0 0 0 0 0 0 0 0 0 0
0 0 0 0 0 0 0 0 0 0 0 0 0 0 0 0 0 0 0 0 0 0 0 0 0 0 0 0 0 0 0 0 0 0 0 0 0 0 0 0 0 0 0 0 0 0 0 0 0
0 0 0 0 0 0 0 0 0 0 0 0 0 0 0 0 0 0 0 0 0 0 0 0 0 0 0 0 0 0 0 0 0 0 0 0 0 0 0 0 0 0 0 0 0 0 0 0 0
Wind_Speed_500mb
11 9 5 1 7 10 1 6 3 5 3 2 12 8 14 10 8 7 23 41 38 37 34 33 29 23 21 19 18 20 21 21 20 20 23 23 19 15 21 23 21 33 36 37 36 35 31 32 32
9 7 3 6 9 6 7 5 12 6 12 31 22 15 8 2 10 17 41 37 36 37 36 35 31 26 23 20 19 20 20 20 19 19 21 23 20 15 18 22 23 29 35 32 33 33 31 30 32
10 7 4 9 7 8 8 7 10 10 20 5 8 8 8 10 12 35 33 39 36 37 36 35 32 28 25 22 21 20 19 19 19 19 20 20 25 18 15 19 21 25 31 34 33 30 30 32 35
8 5 9 8 4 5 6 10 13 14 7 4 17 9 8 7 16 30 36 36 35 37 37 37 33 29 25 23 21 19 18 17 17 18 19 24 28 23 14 13 19 20 22 25 31 29 29 31 32
7 4 8 6 5 3 2 15 24 8 9 11 10 7 6 16 17 28 33 39 33 39 39 38 34 30 26 24 21 18 16 15 14 15 19 23 26 25 19 9 14 14 15 20 22 21 22 26 30
3 6 9 3 2 5 2 19 14 11 12 14 12 15 10 27 18 30 32 38 30 36 42 39 35 31 28 25 21 17 14 13 13 13 17 19 25 24 16 8 9 12 12 16 17 18 19 20 26
10 8 9 9 9 6 11 21 11 16 13 14 24 11 8 34 24 24 30 34 31 36 42 41 38 35 30 27 23 19 16 14 13 12 15 16 17 16 13 7 5 15 13 14 14 17 17 18 20
8 10 6 2 7 8 12 22 14 23 13 12 22 9 9 36 35 32 35 30 31 35 44 43 42 40 37 32 27 22 19 16 13 12 12 13 12 12 12 8 15 17 15 15 14 16 16 15 14
8 9 4 8 10 4 19 7 13 12 17 17 19 9 9 38 38 45 43 39 32 35 39 41 44 44 40 36 32 28 24 20 18 16 14 11 11 12 10 11 14 14 14 13 14 14 13 12 13
8 8 16 7 4 5 13 5 18 11 14 12 18 18 16 49 47 54 59 56 52 49 43 43 44 47 45 41 38 34 30 27 22 19 16 15 14 14 14 16 16 16 15 16 16 15 13 10 10
9 11 11 8 6 10 11 4 9 14 7 23 34 30 30 51 54 54 59 59 56 56 54 51 50 48 49 47 45 42 37 33 29 26 22 21 21 20 19 18 18 16 15 15 16 15 12 8 6
7 9 13 13 9 7 9 5 5 22 15 11 28 28 33 50 56 58 61 60 60 62 56 53 50 48 51 51 51 47 44 40 36 33 27 24 24 24 22 20 17 15 16 17 16 14 11 10 12
5 7 10 11 9 6 9 8 11 26 28 19 21 23 38 44 47 53 51 57 61 65 62 57 57 48 50 56 53 52 49 46 41 39 31 28 27 26 26 23 18 18 19 19 17 15 13 12 15
15 10 7 8 6 7 7 4 6 6 9 35 32 30 35 43 43 51 61 61 67 68 70 64 62 57 50 53 56 56 51 47 47 44 37 35 32 31 32 28 25 24 24 22 20 18 17 17 18
9 5 5 10 9 6 7 11 17 32 14 16 31 37 38 46 49 55 52 60 61 66 71 75 70 64 62 57 57 54 51 54 50 50 48 43 41 41 40 38 34 30 31 31 29 27 25 24 24
8 9 2 3 11 2 7 18 11 5 16 21 23 21 31 46 55 54 56 62 63 68 73 73 76 73 68 67 63 61 54 61 60 54 51 55 50 49 49 49 46 40 41 40 36 33 32 31 29
11 6 5 11 14 5 7 13 8 7 7 10 9 19 29 37 43 50 55 60 67 69 71 73 76 78 74 72 69 67 65 67 68 64 60 60 59 57 55 56 54 51 50 48 44 41 39 39 39
12 6 6 8 8 4 5 19 20 23 19 33 44 45 45 50 59 52 53 55 60 68 73 74 76 77 79 74 73 74 73 71 72 73 69 63 65 65 63 62 60 58 57 56 52 50 46 45 44
12 8 6 5 3 7 15 16 22 43 42 53 59 62 61 64 64 61 61 59 60 65 74 76 78 81 83 86 84 88 85 83 78 75 73 70 67 67 70 71 66 67 64 63 61 58 54 54 54
7 8 6 7 1 9 9 20 19 27 39 61 67 74 75 71 59 35 30 52 65 63 66 74 77 79 82 86 87 88 84 84 81 77 73 75 73 73 72 77 76 73 72 70 70 67 65 67 62
7 10 9 12 5 4 10 16 12 12 31 51 55 60 56 52 50 45 39 33 46 63 66 68 75 78 78 82 90 97 92 89 85 83 80 78 73 82 75 80 77 81 82 82 76 75 79 79 73
10 14 9 7 6 8 4 11 11 11 18 16 54 51 54 58 58 43 26 27 36 41 54 63 66 76 80 84 90 91 95 98 96 88 85 79 77 72 83 80 83 84 92 88 85 88 82 82 88
12 9 8 6 7 5 5 3 14 6 12 24 29 34 24 20 16 15 18 20 19 30 36 46 54 64 77 84 84 85 92 96 93 82 88 86 81 78 77 89 87 85 92 89 93 96 88 91 90
17 13 14 9 5 7 15 15 10 9 14 8 5 14 15 15 14 14 16 15 10 12 16 26 42 46 60 75 82 84 83 88 91 93 92 86 82 78 80 80 91 88 94 95 87 99 106 100 97
8 14 3 6 3 13 6 5 15 16 14 13 20 31 19 25 19 12 14 13 10 5 6 13 25 39 48 58 66 70 72 77 84 85 84 83 76 72 74 82 84 92 92 93 107 88 111 119 99
15 16 12 16 9 8 5 13 12 9 16 24 18 24 26 19 12 10 9 7 7 9 12 14 17 21 26 33 42 50 57 64 72 78 79 75 74 71 69 73 78 82 91 90 92 110 104 110 114
12 14 13 13 6 6 8 12 20 6 9 31 39 49 39 27 16 10 6 10 12 14 15 13 12 12 18 25 31 38 43 48 51 53 58 62 63 63 63 65 70 78 84 86 90 99 100 105 106
14 19 8 4 6 8 8 8 12 5 10 15 19 33 38 36 32 26 22 19 17 15 12 9 5 4 11 19 25 28 31 34 36 40 45 50 51 53 56 61 65 70 76 81 84 89 93 95 99
7 8 4 10 11 11 2 12 13 15 16 16 9 28 40 42 37 32 30 27 25 23 23 24 20 16 10 6 6 9 10 14 20 28 32 37 43 47 53 55 60 65 70 74 79 85 91 99 104
12 21 15 12 10 5 6 13 4 15 22 31 24 34 41 40 37 33 29 27 27 28 28 26 25 22 19 14 10 8 11 18 23 28 33 36 40 43 48 53 58 62 65 68 73 78 84 90 95
Wind_Direction_500mb
224 222 232 181 58 66 151 221 156 150 155 132 144 179 156 95 149 205 152 164 168 168 162 161 166 161 143 133 124 110 105 106 111 118 120 117 104 95 80 71 84 102 100 94 94 99 95 87 85
213 221 171 107 90 75 273 260 172 197 135 115 96 97 76 105 132 146 152 163 172 170 167 166 169 162 152 144 130 120 112 107 109 117 122 120 119 104 88 78 91 99 104 99 98 96 88 84 85
199 188 143 93 112 161 187 197 182 143 147 165 99 81 105 141 170 162 162 158 169 175 173 171 172 167 159 152 141 130 120 113 112 119 125 124 124 116 102 85 86 100 102 96 102 96 89 88 93
189 147 66 86 131 217 215 178 176 139 117 129 138 74 107 160 169 169 161 165 167 178 177 176 175 171 164 157 148 138 128 120 117 118 124 126 129 128 132 107 93 108 112 109 107 105 99 98 98
185 123 61 87 287 310 250 168 165 124 140 138 151 184 106 149 162 172 174 174 179 181 181 181 180 177 172 165 157 150 141 128 120 118 130 134 136 144 163 140 104 122 122 119 124 118 104 104 105
162 86 69 156 214 3 72 172 171 138 162 155 128 140 141 169 180 173 180 183 189 189 185 186 185 184 180 175 170 165 157 143 131 129 139 137 141 159 170 172 119 133 133 126 129 114 109 105 113
127 85 176 173 149 161 197 191 190 160 169 197 157 131 192 188 186 192 189 184 190 194 192 190 190 189 189 185 183 180 176 168 156 150 157 158 154 167 189 210 170 159 150 145 139 129 124 118 121
127 93 138 171 173 234 172 168 193 163 196 174 176 183 207 187 181 183 188 190 197 199 201 197 195 195 194 193 191 192 189 184 173 167 171 178 181 186 197 201 154 160 150 153 143 132 122 118 122
128 70 174 183 155 206 159 140 162 183 166 184 197 211 215 184 178 178 182 193 202 197 201 205 204 201 201 200 198 198 197 195 192 188 186 190 196 199 201 191 170 163 162 154 149 135 128 125 129
102 115 205 210 186 189 166 162 163 160 164 205 206 204 191 183 187 187 188 195 198 202 204 208 215 210 205 206 205 205 205 204 204 203 201 200 201 202 197 192 183 174 178 159 156 147 141 137 137
153 172 197 177 145 149 156 164 180 159 229 210 212 203 191 187 195 198 201 202 204 203 206 211 212 217 214 211 211 210 210 210 208 207 207 205 203 200 198 197 194 187 177 169 161 160 156 158 168
130 185 165 171 153 144 165 185 215 213 225 260 230 224 206 196 200 204 207 209 212 210 213 216 217 221 218 219 219 218 213 213 213 213 212 210 203 200 197 196 199 186 178 176 172 173 175 182 177
175 181 166 184 168 208 209 221 240 249 239 229 187 209 218 213 216 217 220 216 216 218 219 220 220 225 223 222 225 223 223 217 218 219 219 211 206 203 198 194 199 192 189 187 189 191 197 193 186
191 151 149 203 208 208 204 218 197 258 216 223 231 232 227 226 230 225 220 222 221 222 225 225 226 229 226 226 229 229 229 232 223 221 229 218 215 214 206 201 201 199 199 203 207 212 210 201 200
118 110 328 209 207 247 186 283 231 241 259 235 236 234 234 236 236 239 240 232 230 229 227 227 228 230 232 229 231 232 227 227 233 224 224 227 224 222 219 213 212 211 209 213 216 216 215 210 206
77 44 122 331 152 230 141 265 285 247 235 239 234 229 238 241 244 247 245 242 237 233 232 230 231 231 234 233 231 232 225 224 229 240 227 229 228 228 226 222 221 219 219 219 223 224 221 218 218
20 200 195 317 198 129 152 263 263 165 180 215 241 257 253 256 250 251 248 246 243 239 237 234 232 234 234 236 233 235 235 230 231 237 238 232 230 231 232 229 227 230 226 224 225 229 229 224 218
196 197 215 233 208 152 190 261 280 264 257 270 282 277 269 262 259 260 258 253 247 244 241 239 236 237 235 236 236 233 239 239 237 239 240 236 232 231 233 232 230 235 233 231 230 230 230 225 223
140 155 184 247 202 168 226 259 265 276 286 281 274 275 276 273 275 274 262 253 248 244 242 239 237 236 236 232 232 231 233 237 239 239 242 242 238 234 236 237 235 232 238 239 236 233 227 220 222
135 142 232 288 328 173 297 270 267 268 264 265 274 278 278 281 283 282 277 248 243 244 243 242 239 237 237 237 236 237 239 239 243 245 239 245 243 238 235 241 241 240 236 239 241 237 229 228 226
186 173 209 215 7 358 354 290 264 279 257 268 267 271 275 274 281 289 289 273 247 240 241 243 242 240 238 239 239 237 237 240 239 239 244 243 246 247 243 241 244 245 242 243 244 242 245 240 228
198 200 175 170 88 239 25 285 298 271 289 290 271 267 272 281 285 287 285 267 244 242 243 245 246 243 241 238 239 241 241 240 243 241 246 245 243 252 239 247 246 245 248 242 245 248 253 249 240
209 126 128 79 99 23 329 349 274 295 278 263 280 288 303 312 300 289 291 284 260 243 247 246 247 246 243 241 243 244 243 245 246 243 244 249 253 250 257 253 249 249 251 248 252 243 247 249 254
153 78 51 59 74 296 194 175 266 221 216 284 301 343 359 13 19 20 16 12 315 271 266 254 242 249 248 244 243 243 244 248 249 250 250 252 256 260 254 257 253 255 252 251 255 251 248 248 252
98 96 359 347 10 232 107 146 246 265 258 235 284 320 345 345 344 356 358 356 9 354 301 264 245 246 247 244 245 248 250 252 254 258 261 261 264 262 260 257 258 256 261 258 249 257 254 244 246
188 157 165 198 200 249 101 235 251 245 279 311 353 353 336 353 3 4 7 21 22 326 296 278 264 258 254 250 249 251 253 257 259 261 264 268 270 272 271 267 263 264 258 263 255 256 257 255 250
197 211 159 103 26 58 223 284 307 266 30 43 44 53 48 49 51 49 16 332 332 332 325 317 306 275 258 250 248 249 254 259 264 267 268 268 270 271 271 266 263 261 262 264 263 259 256 253 255
176 150 90 21 164 247 259 257 219 97 69 41 27 52 57 56 54 46 33 20 3 5 14 11 346 283 258 255 256 256 258 262 264 263 265 268 269 268 267 265 263 261 260 261 261 260 260 261 263
147 189 139 133 159 186 216 253 221 157 138 118 93 76 65 55 49 48 50 51 49 45 49 53 56 53 42 2 294 269 261 267 277 280 281 281 276 273 271 269 267 264 263 261 261 261 260 257 258
209 200 165 178 215 241 158 259 123 137 134 127 116 83 70 67 61 54 53 52 52 64 64 52 48 43 42 35 27 343 309 295 293 294 292 287 284 280 278 273 269 267 263 261 261 262 263 262 257
Wind_Speed_850mb
11 9 5 1 7 10 1 6 3 5 3 2 12 8 14 10 8 7 23 41 38 37 34 33 29 23 21 19 18 20 21 21 20 20 23 23 19 15 21 23 21 33 36 37 36 35 31 32 32
9 7 3 6 9 6 7 5 12 6 12 31 22 15 8 2 10 17 41 37 36 37 36 35 31 26 23 20 19 20 20 20 19 19 21 23 20 15 18 22 23 29 35 32 33 33 31 30 32
10 7 4 9 7 8 8 7 10 10 20 5 8 8 8 10 12 35 33 39 36 37 36 35 32 28 25 22 21 20 19 19 19 19 20 20 25 18 15 19 21 25 31 34 33 30 30 32 35
8 5 9 8 4 5 6 10 13 14 7 4 17 9 8 7 16 30 36 36 35 37 37 37 33 29 25 23 21 19 18 17 17 18 19 24 28 23 14 13 19 20 22 25 31 29 29 31 32
7 4 8 6 5 3 2 15 24 8 9 11 10 7 6 16 17 28 33 39 33 39 39 38 34 30 26 24 21 18 16 15 14 15 19 23 26 25 19 9 14 14 15 20 22 21 22 26 30
3 6 9 3 2 5 2 19 14 11 12 14 12 15 10 27 18 30 32 38 30 36 42 39 35 31 28 25 21 17 14 13 13 13 17 19 25 24 16 8 9 12 12 16 17 18 19 20 26
10 8 9 9 9 6 11 21 11 16 13 14 24 11 8 34 24 24 30 34 31 36 42 41 38 35 30 27 23 19 16 14 13 12 15 16 17 16 13 7 5 15 13 14 14 17 17 18 20
8 10 6 2 7 8 12 22 14 23 13 12 22 9 9 36 35 32 35 30 31 35 44 43 42 40 37 32 27 22 19 16 13 12 12 13 12 12 12 8 15 17 15 15 14 16 16 15 14
8 9 4 8 10 4 19 7 13 12 17 17 19 9 9 38 38 45 43 39 32 35 39 41 44 44 40 36 32 28 24 20 18 16 14 11 11 12 10 11 14 14 14 13 14 14 13 12 13
8 8 16 7 4 5 13 5 18 11 14 12 18 18 16 49 47 54 59 56 52 49 43 43 44 47 45 41 38 34 30 27 22 19 16 15 14 14 14 16 16 16 15 16 16 15 13 10 10
9 11 11 8 6 10 11 4 9 14 7 23 34 30 30 51 54 54 59 59 56 56 54 51 50 48 49 47 45 42 37 33 29 26 22 21 21 20 19 18 18 16 15 15 16 15 12 8 6
7 9 13 13 9 7 9 5 5 22 15 11 28 28 33 50 56 58 61 60 60 62 56 53 50 48 51 51 51 47 44 40 36 33 27 24 24 24 22 20 17 15 16 17 16 14 11 10 12
5 7 10 11 9 6 9 8 11 26 28 19 21 23 38 44 47 53 51 57 61 65 62 57 57 48 50 56 53 52 49 46 41 39 31 28 27 26 26 23 18 18 19 19 17 15 13 12 15
15 10 7 8 6 7 7 4 6 6 9 35 32 30 35 43 43 51 61 61 67 68 70 64 62 57 50 53 56 56 51 47 47 44 37 35 32 31 32 28 25 24 24 22 20 18 17 17 18
9 5 5 10 9 6 7 11 17 32 14 16 31 37 38 46 49 55 52 60 61 66 71 75 70 64 62 57 57 54 51 54 50 50 48 43 41 41 40 38 34 30 31 31 29 27 25 24 24
8 9 2 3 11 2 7 18 11 5 16 21 23 21 31 46 55 54 56 62 63 68 73 73 76 73 68 67 63 61 54 61 60 54 51 55 50 49 49 49 46 40 41 40 36 33 32 31 29
11 6 5 11 14 5 7 13 8 7 7 10 9 19 29 37 43 50 55 60 67 69 71 73 76 78 74 72 69 67 65 67 68 64 60 60 59 57 55 56 54 51 50 48 44 41 39 39 39
12 6 6 8 8 4 5 19 20 23 19 33 44 45 45 50 59 52 53 55 60 68 73 74 76 77 79 74 73 74 73 71 72 73 69 63 65 65 63 62 60 58 57 56 52 50 46 45 44
12 8 6 5 3 7 15 16 22 43 42 53 59 62 61 64 64 61 61 59 60 65 74 76 78 81 83 86 84 88 85 83 78 75 73 70 67 67 70 71 66 67 64 63 61 58 54 54 54
7 8 6 7 1 9 9 20 19 27 39 61 67 74 75 71 59 35 30 52 65 63 66 74 77 79 82 86 87 88 84 84 81 77 73 75 73 73 72 77 76 73 72 70 70 67 65 67 62
7 10 9 12 5 4 10 16 12 12 31 51 55 60 56 52 50 45 39 33 46 63 66 68 75 78 78 82 90 97 92 89 85 83 80 78 73 82 75 80 77 81 82 82 76 75 79 79 73
10 14 9 7 6 8 4 11 11 11 18 16 54 51 54 58 58 43 26 27 36 41 54 63 66 76 80 84 90 91 95 98 96 88 85 79 77 72 83 80 83 84 92 88 85 88 82 82 88
12 9 8 6 7 5 5 3 14 6 12 24 29 34 24 20 16 15 18 20 19 30 36 46 54 64 77 84 84 85 92 96 93 82 88 86 81 78 77 89 87 85 92 89 93 96 88 91 90
17 13 14 9 5 7 15 15 10 9 14 8 5 14 15 15 14 14 16 15 10 12 16 26 42 46 60 75 82 84 83 88 91 93 92 86 82 78 80 80 91 88 94 95 87 99 106 100 97
8 14 3 6 3 13 6 5 15 16 14 13 20 31 19 25 19 12 14 13 10 5 6 13 25 39 48 58 66 70 72 77 84 85 84 83 76 72 74 82 84 92 92 93 107 88 111 119 99
15 16 12 16 9 8 5 13 12 9 16 24 18 24 26 19 12 10 9 7 7 9 12 14 17 21 26 33 42 50 57 64 72 78 79 75 74 71 69 73 78 82 91 90 92 110 104 110 114
12 14 13 13 6 6 8 12 20 6 9 31 39 49 39 27 16 10 6 10 12 14 15 13 12 12 18 25 31 38 43 48 51 53 58 62 63 63 63 65 70 78 84 86 90 99 100 105 106
14 19 8 4 6 8 8 8 12 5 10 15 19 33 38 36 32 26 22 19 17 15 12 9 5 4 11 19 25 28 31 34 36 40 45 50 51 53 56 61 65 70 76 81 84 89 93 95 99
7 8 4 10 11 11 2 12 13 15 16 16 9 28 40 42 37 32 30 27 25 23 23 24 20 16 10 6 6 9 10 14 20 28 32 37 43 47 53 55 60 65 70 74 79 85 91 99 104
12 21 15 12 10 5 6 13 4 15 22 31 24 34 41 40 37 33 29 27 27 28 28 26 25 22 19 14 10 8 11 18 23 28 33 36 40 43 48 53 58 62 65 68 73 78 84 90 95
Wind_Direction_850mb
224 222 232 181 58 66 151 221 156 150 155 132 144 179 156 95 149 205 152 164 168 168 162 161 166 161 143 133 124 110 105 106 111 118 120 117 104 95 80 71 84 102 100 94 94 99 95 87 85
213 221 171 107 90 75 273 260 172 197 135 115 96 97 76 105 132 146 152 163 172 170 167 166 169 162 152 144 130 120 112 107 109 117 122 120 119 104 88 78 91 99 104 99 98 96 88 84 85
199 188 143 93 112 161 187 197 182 143 147 165 99 81 105 141 170 162 162 158 169 175 173 171 172 167 159 152 141 130 120 113 112 119 125 124 124 116 102 85 86 100 102 96 102 96 89 88 93
189 147 66 86 131 217 215 178 176 139 117 129 138 74 107 160 169 169 161 165 167 178 177 176 175 171 164 157 148 138 128 120 117 118 124 126 129 128 132 107 93 108 112 109 107 105 99 98 98
185 123 61 87 287 310 250 168 165 124 140 138 151 184 106 149 162 172 174 174 179 181 181 181 180 177 172 165 157 150 141 128 120 118 130 134 136 144 163 140 104 122 122 119 124 118 104 104 105
162 86 69 156 214 3 72 172 171 138 162 155 128 140 141 169 180 173 180 183 189 189 185 186 185 184 180 175 170 165 157 143 131 129 139 137 141 159 170 172 119 133 133 126 129 114 109 105 113
127 85 176 173 149 161 197 191 190 160 169 197 157 131 192 188 186 192 189 184 190 194 192 190 190 189 189 185 183 180 176 168 156 150 157 158 154 167 189 210 170 159 150 145 139 129 124 118 121
127 93 138 171 173 234 172 168 193 163 196 174 176 183 207 187 181 183 188 190 197 199 201 197 195 195 194 193 191 192 189 184 173 167 171 178 181 186 197 201 154 160 150 153 143 132 122 118 122
128 70 174 183 155 206 159 140 162 183 166 184 197 211 215 184 178 178 182 193 202 197 201 205 204 201 201 200 198 198 197 195 192 188 186 190 196 199 201 191 170 163 162 154 149 135 128 125 129
102 115 205 210 186 189 166 162 163 160 164 205 206 204 191 183 187 187 188 195 198 202 204 208 215 210 205 206 205 205 205 204 204 203 201 200 201 202 197 192 183 174 178 159 156 147 141 137 137
153 172 197 177 145 149 156 164 180 159 229 210 212 203 191 187 195 198 201 202 204 203 206 211 212 217 214 211 211 210 210 210 208 207 207 205 203 200 198 197 194 187 177 169 161 160 156 158 168
130 185 165 171 153 144 165 185 215 213 225 260 230 224 206 196 200 204 207 209 212 210 213 216 217 221 218 219 219 218 213 213 213 213 212 210 203 200 197 196 199 186 178 176 172 173 175 182 177
175 181 166 184 168 208 209 221 240 249 239 229 187 209 218 213 216 217 220 216 216 218 219 220 220 225 223 222 225 223 223 217 218 219 219 211 206 203 198 194 199 192 189 187 189 191 197 193 186
191 151 149 203 208 208 204 218 197 258 216 223 231 232 227 226 230 225 220 222 221 222 225 225 226 229 226 226 229 229 229 232 223 221 229 218 215 214 206 201 201 199 199 203 207 212 210 201 200
118 110 328 209 207 247 186 283 231 241 259 235 236 234 234 236 236 239 240 232 230 229 227 227 228 230 232 229 231 232 227 227 233 224 224 227 224 222 219 213 212 211 209 213 216 216 215 210 206
77 44 122 331 152 230 141 265 285 247 235 239 234 229 238 241 244 247 245 242 237 233 232 230 231 231 234 233 231 232 225 224 229 240 227 229 228 228 226 222 221 219 219 219 223 224 221 218 218
20 200 195 317 198 129 152 263 263 165 180 215 241 257 253 256 250 251 248 246 243 239 237 234 232 234 234 236 233 235 235 230 231 237 238 232 230 231 232 229 227 230 226 224 225 229 229 224 218
196 197 215 233 208 152 190 261 280 264 257 270 282 277 269 262 259 260 258 253 247 244 241 239 236 237 235 236 236 233 239 239 237 239 240 236 232 231 233 232 230 235 233 231 230 230 230 225 223
140 155 184 247 202 168 226 259 265 276 286 281 274 275 276 273 275 274 262 253 248 244 242 239 237 236 236 232 232 231 233 237 239 239 242 242 238 234 236 237 235 232 238 239 236 233 227 220 222
135 142 232 288 328 173 297 270 267 268 264 265 274 278 278 281 283 282 277 248 243 244 243 242 239 237 237 237 236 237 239 239 243 245 239 245 243 238 235 241 241 240 236 239 241 237 229 228 226
186 173 209 215 7 358 354 290 264 279 257 268 267 271 275 274 281 289 289 273 247 240 241 243 242 240 238 239 239 237 237 240 239 239 244 243 246 247 243 241 244 245 242 243 244 242 245 240 228
198 200 175 170 88 239 25 285 298 271 289 290 271 267 272 281 285 287 285 267 244 242 243 245 246 243 241 238 239 241 241 240 243 241 246 245 243 252 239 247 246 245 248 242 245 248 253 249 240
209 126 128 79 99 23 329 349 274 295 278 263 280 288 303 312 300 289 291 284 260 243 247 246 247 246 243 241 243 244 243 245 246 243 244 249 253 250 257 253 249 249 251 248 252 243 247 249 254
153 78 51 59 74 296 194 175 266 221 216 284 301 343 359 13 19 20 16 12 315 271 266 254 242 249 248 244 243 243 244 248 249 250 250 252 256 260 254 257 253 255 252 251 255 251 248 248 252
98 96 359 347 10 232 107 146 246 265 258 235 284 320 345 345 344 356 358 356 9 354 301 264 245 246 247 244 245 248 250 252 254 258 261 261 264 262 260 257 258 256 261 258 249 257 254 244 246
188 157 165 198 200 249 101 235 251 245 279 311 353 353 336 353 3 4 7 21 22 326 296 278 264 258 254 250 249 251 253 257 259 261 264 268 270 272 271 267 263 264 258 263 255 256 257 255 250
197 211 159 103 26 58 223 284 307 266 30 43 44 53 48 49 51 49 16 332 332 332 325 317 306 275 258 250 248 249 254 259 264 267 268 268 270 271 271 266 263 261 262 264 263 259 256 253 255
176 150 90 21 164 247 259 257 219 97 69 41 27 52 57 56 54 46 33 20 3 5 14 11 346 283 258 255 256 256 258 262 264 263 265 268 269 268 267 265 263 261 260 261 261 260 260 261 263
147 189 139 133 159 186 216 253 221 157 138 118 93 76 65 55 49 48 50 51 49 45 49 53 56 53 42 2 294 269 261 267 277 280 281 281 276 273 271 269 267 264 263 261 261 261 260 257 258
209 200 165 178 215 241 158 259 123 137 134 127 116 83 70 67 61 54 53 52 52 64 64 52 48 43 42 35 27 343 309 295 293 294 292 287 284 280 278 273 269 267 263 261 261 262 263 262 257